Date String (YYYY-MM-DD hh:mm:ss) UTC,Instrument flags,absolute air pressure of the measurement (hPa),sample flow rate (lpm),inlet stack bypass flow (lpm),air temperature of the measurement (°C),ambient temperature measured by the external sensor (°C),aerosol sample conditioner tube jacket temperature (°C),OPC LED temperature (°C),internal box temperature (°C),relative humidity of the measurement (%),span deviation,mass concentration of particles derived from Lorenz-Mie calculation of OPC scattering (μg/m³),mass concentration of particles derived from Lorenz-Mie calculation of OPC scattering (μg/m³),mass concentration of particles derived from Lorenz-Mie calculation of OPC scattering (μg/m³)
DateTimeUTC,F1_M11,P_M11,Q1_M11,Q2_M11,T1_M11,T2_M11,T3_M11,T4_M11,T5_M11,U1_M11,ZSPAN_M11,X0_M11,X2_M11,X1_M11
2023-10-27 22:00:00,SystemResetWarning,0831.0,5.00,000.00,023.9,022.9,000.0,032.2,025.5,13.7,0001.2,0015.08,0008.83,0008.29
2023-10-27 22:01:00,SystemResetWarning,0831.0,5.00,000.00,023.9,022.8,000.0,032.2,025.5,13.7,0001.2,0014.29,0008.82,0008.28
2023-10-27 22:02:00,SystemResetWarning,0831.0,5.00,000.00,023.9,022.8,000.0,032.2,025.5,13.5,0000.9,0013.88,0008.81,0008.27
2023-10-27 22:03:00,SystemResetWarning,0830.9,5.00,000.00,023.9,022.8,000.0,032.2,025.5,13.4,0000.7,0013.73,0008.80,0008.27
2023-10-27 22:04:00,SystemResetWarning,0830.9,5.00,000.00,023.9,022.9,000.0,032.2,025.5,13.4,0000.5,0013.51,0008.76,0008.26
2023-10-27 22:05:00,SystemResetWarning,0830.9,5.00,000.00,023.9,022.9,000.0,032.2,025.5,13.5,0000.2,0013.47,0008.74,0008.24
2023-10-27 22:06:00,SystemResetWarning,0830.9,5.00,000.00,023.9,022.9,000.0,032.2,025.6,13.5,0000.1,0014.35,0008.74,0008.21
2023-10-27 22:07:00,SystemResetWarning,0830.9,5.00,000.00,024.0,023.0,000.0,032.2,025.6,13.5,0000.1,0014.34,0008.73,0008.19
2023-10-27 22:08:00,SystemResetWarning,0830.9,5.00,000.00,024.0,023.0,000.0,032.3,025.6,13.5,-000.2,0014.04,0008.70,0008.16
2023-10-27 22:09:00,SystemResetWarning,0830.9,5.00,000.00,024.0,022.9,000.0,032.3,025.5,13.5,-000.1,0014.00,0008.71,0008.14
2023-10-27 22:10:00,SystemResetWarning,0830.9,5.00,000.00,024.0,022.9,000.0,032.3,025.5,14.1,0000.3,0013.33,0008.64,0008.09
2023-10-27 22:11:00,SystemResetWarning,0830.9,4.99,000.00,024.0,022.9,000.0,032.3,025.6,14.2,0000.9,0013.25,0008.61,0008.05
2023-10-27 22:12:00,SystemResetWarning,0830.9,5.00,000.00,024.0,022.9,000.0,032.3,025.6,14.2,0001.0,0013.05,0008.56,0008.00
2023-10-27 22:13:00,SystemResetWarning,0830.8,4.99,000.00,024.0,023.0,000.0,032.3,025.7,14.2,0001.2,0012.55,0008.55,0007.97
2023-10-27 22:14:00,SystemResetWarning,0830.8,5.01,000.00,024.0,023.0,000.0,032.3,025.7,14.2,0001.6,0012.55,0008.53,0007.95
2023-10-27 22:15:00,SystemResetWarning,0830.8,5.01,000.00,024.0,023.0,000.0,032.3,025.7,14.2,0001.5,0012.70,0008.58,0007.94
2023-10-27 22:16:00,SystemResetWarning,0830.8,5.01,000.00,024.1,023.0,000.0,032.3,025.7,14.2,0002.0,0012.71,0008.61,0007.94
2023-10-27 22:17:00,SystemResetWarning,0830.7,5.00,000.00,024.1,023.1,000.0,032.3,025.7,14.0,0001.8,0012.10,0008.60,0007.93
2023-10-27 22:18:00,SystemResetWarning,0830.8,5.00,000.00,024.1,023.1,000.0,032.4,025.8,14.0,0001.4,0012.12,0008.53,0007.90
2023-10-27 22:19:00,SystemResetWarning,0830.8,5.00,000.00,024.1,023.1,000.0,032.4,025.8,14.0,0001.2,0011.60,0008.49,0007.88
2023-10-27 22:20:00,SystemResetWarning,0830.9,5.00,000.00,024.2,023.1,000.0,032.4,025.9,14.0,0001.2,0011.50,0008.47,0007.88
2023-10-27 22:21:00,SystemResetWarning,0830.8,5.00,000.00,024.2,023.1,000.0,032.4,025.9,14.0,0001.3,0011.57,0008.48,0007.89
2023-10-27 22:22:00,SystemResetWarning,0830.9,5.00,000.00,024.2,023.2,000.0,032.4,025.9,14.1,0001.0,0012.27,0008.51,0007.90
2023-10-27 22:23:00,SystemResetWarning,0830.9,5.00,000.00,024.2,023.2,000.0,032.4,025.9,14.0,0000.8,0012.73,0008.51,0007.91
2023-10-27 22:24:00,SystemResetWarning,0830.9,5.00,000.00,024.2,023.2,000.0,032.4,025.9,13.9,0000.8,0012.79,0008.51,0007.90
2023-10-27 22:25:00,SystemResetWarning,0830.8,5.00,000.00,024.3,023.2,000.0,032.5,025.9,14.0,0000.4,0012.83,0008.47,0007.88
2023-10-27 22:26:00,SystemResetWarning,0830.8,5.01,000.00,024.3,023.2,000.0,032.5,025.9,14.0,0000.6,0013.77,0008.41,0007.83
2023-10-27 22:27:00,SystemResetWarning,0830.9,5.01,000.00,024.3,023.2,000.0,032.5,026.0,14.0,0000.4,0013.86,0008.39,0007.80
2023-10-27 22:28:00,SystemResetWarning,0830.9,5.01,000.00,024.3,023.2,000.0,032.5,026.0,14.2,0000.7,0013.68,0008.36,0007.77
2023-10-27 22:29:00,SystemResetWarning,0830.8,5.00,000.00,024.3,023.2,000.0,032.5,026.0,14.2,0001.3,0013.72,0008.41,0007.77
2023-10-27 22:30:00,SystemResetWarning,0830.9,4.99,000.00,024.3,023.3,000.0,032.5,026.0,14.1,0001.7,0013.80,0008.42,0007.75
2023-10-27 22:31:00,SystemResetWarning,0830.9,4.99,000.00,024.4,023.3,000.0,032.5,026.0,13.9,0001.5,0013.89,0008.39,0007.71
2023-10-27 22:32:00,SystemResetWarning,0830.8,5.00,000.00,024.4,023.3,000.0,032.6,026.0,13.7,0001.5,0014.21,0008.38,0007.66
2023-10-27 22:33:00,SystemResetWarning,0830.8,5.01,000.00,024.4,023.3,000.0,032.6,026.0,13.6,0001.7,0014.53,0008.31,0007.62
2023-10-27 22:34:00,SystemResetWarning,0830.8,5.00,000.00,024.4,023.3,000.0,032.6,026.1,13.5,0001.6,0014.30,0008.30,0007.59
2023-10-27 22:35:00,SystemResetWarning,0830.8,5.00,000.00,024.4,023.3,000.0,032.6,026.1,13.5,0001.8,0014.70,0008.27,0007.56
2023-10-27 22:36:00,SystemResetWarning,0830.8,5.00,000.00,024.4,023.3,000.0,032.6,026.1,13.6,0001.7,0014.64,0008.25,0007.53
2023-10-27 22:37:00,SystemResetWarning,0830.8,5.00,000.00,024.4,023.3,000.0,032.6,026.1,13.6,0001.6,0013.70,0008.21,0007.50
2023-10-27 22:38:00,SystemResetWarning,0830.8,5.00,000.00,024.5,023.3,000.0,032.6,026.1,13.6,0001.5,0013.36,0008.17,0007.47
2023-10-27 22:39:00,SystemResetWarning,0830.8,5.01,000.00,024.5,023.4,000.0,032.7,026.2,13.4,0001.8,0013.24,0008.13,0007.44
2023-10-27 22:40:00,SystemResetWarning,0830.8,5.00,000.00,024.5,023.4,000.0,032.7,026.2,13.5,0001.7,0013.03,0008.10,0007.40
2023-10-27 22:41:00,SystemResetWarning,0830.8,5.00,000.00,024.5,023.4,000.0,032.7,026.2,13.4,0001.6,0013.70,0008.08,0007.38
2023-10-27 22:42:00,SystemResetWarning,0830.8,4.99,000.00,024.5,023.4,000.0,032.7,026.2,13.2,0001.7,0014.07,0008.05,0007.37
2023-10-27 22:43:00,SystemResetWarning,0830.8,4.99,000.00,024.5,023.4,000.0,032.7,026.2,13.0,0001.8,0014.17,0008.00,0007.35
2023-10-27 22:44:00,SystemResetWarning,0830.8,4.99,000.00,024.6,023.4,000.0,032.7,026.2,12.9,0001.5,0013.31,0007.99,0007.34
2023-10-27 22:45:00,SystemResetWarning,0830.8,4.99,000.00,024.6,023.4,000.0,032.8,026.2,12.9,0001.6,0013.37,0007.94,0007.31
2023-10-27 22:46:00,SystemResetWarning,0830.8,5.01,000.00,024.6,023.4,000.0,032.8,026.2,12.9,0001.2,0013.06,0007.96,0007.32
2023-10-27 22:47:00,SystemResetWarning,0830.7,5.00,000.00,024.6,023.4,000.0,032.8,026.3,13.0,0002.0,0013.30,0008.02,0007.37
2023-10-27 22:48:00,SystemResetWarning,0830.7,5.00,000.00,024.6,023.4,000.0,032.8,026.3,12.9,0001.8,0013.36,0008.05,0007.42
2023-10-27 22:49:00,SystemResetWarning,0830.7,5.00,000.00,024.6,023.4,000.0,032.8,026.3,12.9,0001.9,0014.03,0008.09,0007.48
2023-10-27 22:50:00,SystemResetWarning,0830.7,5.00,000.00,024.6,023.4,000.0,032.8,026.3,13.0,0001.5,0014.79,0008.20,0007.54
2023-10-27 22:51:00,SystemResetWarning,0830.6,5.00,000.00,024.7,023.4,000.0,032.8,026.3,12.8,0000.9,0015.03,0008.28,0007.61
2023-10-27 22:52:00,SystemResetWarning,0830.6,5.00,000.00,024.7,023.5,000.0,032.9,026.3,12.8,0000.5,0014.37,0008.29,0007.64
2023-10-27 22:53:00,SystemResetWarning,0830.6,5.00,000.00,024.7,023.5,000.0,032.9,026.3,12.8,0000.5,0013.91,0008.33,0007.66
2023-10-27 22:54:00,SystemResetWarning,0830.7,5.00,000.00,024.7,023.5,000.0,032.9,026.3,12.7,0000.5,0013.56,0008.37,0007.69
2023-10-27 22:55:00,SystemResetWarning,0830.7,5.00,000.00,024.7,023.5,000.0,032.9,026.3,12.7,0000.1,0013.79,0008.42,0007.72
2023-10-27 22:56:00,SystemResetWarning,0830.7,4.99,000.00,024.7,023.5,000.0,032.9,026.3,12.6,0000.1,0013.63,0008.47,0007.76
2023-10-27 22:57:00,SystemResetWarning,0830.6,5.00,000.00,024.7,023.5,000.0,032.9,026.3,12.6,-000.1,0014.03,0008.46,0007.77
2023-10-27 22:58:00,SystemResetWarning,0830.6,5.00,000.00,024.7,023.5,000.0,032.9,026.3,12.7,-000.9,0014.00,0008.46,0007.78
2023-10-27 22:59:00,SystemResetWarning,0830.6,5.00,000.00,024.7,023.5,000.0,033.0,026.3,12.7,-000.9,0014.07,0008.46,0007.77
